| time (UTC) | temp F | wind direction | speed MPH | gust MPH | rain 1hr in | rain 24hr in | rain mn in | humidity % | barometer mb |
| 20260901095010 | 58 | 332 | 0.0 | 0.0 | 0.00 | 0.00 | 0.00 | 95 | 1043.9 |
| 20260901094505 | 58 | 339 | 0.0 | 0.0 | 0.00 | 0.00 | 0.00 | 95 | 1043.9 |
| 20260901094004 | 58 | 3 | 0.0 | 0.0 | 0.00 | 0.00 | 0.00 | 95 | 1044.1 |
| 20260901093504 | 58 | 324 | 0.0 | 0.0 | 0.00 | 0.00 | 0.00 | 95 | 1044.3 |
| 20260901092959 | 58 | 325 | 0.0 | 0.0 | 0.00 | 0.00 | 0.00 | 95 | 1044.5 |
| 20260901092455 | 58 | 325 | 0.0 | 0.0 | 0.00 | 0.00 | 0.00 | 95 | 1044.3 |
| 20260901091951 | 58 | 334 | 0.0 | 0.0 | 0.00 | 0.00 | 0.00 | 95 | 1044.2 |
| 20260901091446 | 58 | 351 | 0.0 | 0.0 | 0.00 | 0.00 | 0.00 | 95 | 1044.3 |
| 20260901090941 | 58 | 326 | 0.0 | 0.0 | 0.00 | 0.00 | 0.00 | 95 | 1044.3 |
| 20260901090440 | 58 | 326 | 0.0 | 0.0 | 0.00 | 0.00 | 0.00 | 95 | 1044.3 |
| 20260901085936 | 58 | 322 | 0.0 | 0.0 | 0.00 | 0.00 | 0.00 | 95 | 1044.1 |
| 20260901085432 | 58 | 322 | 0.0 | 0.0 | 0.00 | 0.00 | 0.00 | 95 | 1044.1 |
| 20260901084928 | 58 | 332 | 0.0 | 0.0 | 0.00 | 0.00 | 0.00 | 96 | 1044.1 |
| 20260901084424 | 58 | 332 | 0.0 | 0.0 | 0.00 | 0.00 | 0.00 | 96 | 1044.3 |
| 20260901083920 | 58 | 328 | 0.0 | 0.0 | 0.00 | 0.00 | 0.00 | 96 | 1044.2 |
| 20260901083414 | 58 | 329 | 0.0 | 0.0 | 0.00 | 0.00 | 0.00 | 96 | 1044.4 |
| 20260901082912 | 58 | 329 | 0.0 | 0.0 | 0.00 | 0.00 | 0.00 | 96 | 1044.4 |
| 20260901082408 | 58 | 328 | 0.0 | 0.0 | 0.00 | 0.00 | 0.00 | 96 | 1044.4 |
| 20260901081902 | 58 | 346 | 0.0 | 0.0 | 0.00 | 0.00 | 0.00 | 96 | 1044.6 |
| 20260901081357 | 58 | 339 | 0.0 | 0.0 | 0.00 | 0.00 | 0.00 | 96 | 1044.3 |
| 20260901080857 | 58 | 318 | 0.0 | 0.0 | 0.00 | 0.00 | 0.00 | 95 | 1044.4 |
| 20260901080351 | 58 | 339 | 0.0 | 0.0 | 0.00 | 0.00 | 0.00 | 95 | 1044.2 |
| 20260901075845 | 58 | 334 | 0.0 | 0.0 | 0.00 | 0.00 | 0.00 | 95 | 1044.5 |
| 20260901075341 | 58 | 314 | 0.0 | 0.0 | 0.00 | 0.00 | 0.00 | 95 | 1044.6 |
| 20260901074830 | 58 | 314 | 0.0 | 0.0 | 0.00 | 0.00 | 0.00 | 95 | 1044.6 |
| 20260901074325 | 58 | 314 | 0.0 | 0.0 | 0.00 | 0.00 | 0.00 | 95 | 1044.5 |
| 20260901073821 | 58 | 314 | 0.0 | 0.0 | 0.00 | 0.00 | 0.00 | 95 | 1044.4 |
| 20260901073316 | 58 | 314 | 0.0 | 0.0 | 0.00 | 0.00 | 0.00 | 95 | 1044.3 |
| 20260901072812 | 58 | 314 | 0.0 | 0.0 | 0.00 | 0.00 | 0.00 | 95 | 1044.2 |
| 20260901072311 | 58 | 314 | 0.0 | 0.0 | 0.00 | 0.00 | 0.00 | 95 | 1044.5 |
| 20260901071807 | 58 | 314 | 0.0 | 0.0 | 0.00 | 0.00 | 0.00 | 95 | 1044.5 |
| 20260901071305 | 58 | 314 | 0.0 | 0.0 | 0.00 | 0.00 | 0.00 | 95 | 1044.5 |
| 20260901070804 | 58 | 314 | 0.0 | 0.0 | 0.00 | 0.00 | 0.00 | 95 | 1044.7 |
| 20260901070300 | 58 | 314 | 0.0 | 0.0 | 0.00 | 0.00 | 0.00 | 94 | 1044.7 |
| 20260901065759 | 58 | 314 | 0.0 | 0.0 | 0.00 | 0.00 | 0.00 | 95 | 1044.7 |
| 20260901065254 | 58 | 314 | 0.0 | 0.0 | 0.00 | 0.00 | 0.00 | 94 | 1044.7 |
| 20260901064750 | 58 | 314 | 0.0 | 0.0 | 0.00 | 0.00 | 0.00 | 94 | 1044.7 |
| 20260901064246 | 58 | 314 | 0.0 | 0.0 | 0.00 | 0.00 | 0.00 | 94 | 1044.8 |
| 20260901063744 | 58 | 314 | 0.0 | 0.0 | 0.00 | 0.00 | 0.00 | 94 | 1044.8 |
| 20260901063239 | 58 | 314 | 0.0 | 0.0 | 0.00 | 0.00 | 0.00 | 94 | 1044.9 |
| 20260901062735 | 58 | 314 | 0.0 | 0.0 | 0.00 | 0.00 | 0.00 | 94 | 1044.8 |
| 20260901062231 | 58 | 314 | 0.0 | 0.0 | 0.00 | 0.00 | 0.00 | 94 | 1044.9 |
| 20260901061727 | 58 | 314 | 0.0 | 0.0 | 0.00 | 0.00 | 0.00 | 94 | 1044.8 |
| 20260901061226 | 58 | 314 | 0.0 | 0.0 | 0.00 | 0.00 | 0.00 | 94 | 1045.2 |
| 20260901060722 | 58 | 314 | 0.0 | 0.0 | 0.00 | 0.00 | 0.00 | 94 | 1045.0 |
| 20260901060217 | 58 | 314 | 0.0 | 0.0 | 0.00 | 0.00 | 0.00 | 94 | 1044.9 |
| 20260901055712 | 58 | 314 | 0.0 | 0.0 | 0.00 | 0.00 | 0.00 | 94 | 1045.0 |
| 20260901055209 | 58 | 314 | 0.0 | 0.0 | 0.00 | 0.00 | 0.00 | 95 | 1045.5 |
| 20260901054706 | 58 | 314 | 0.0 | 0.0 | 0.00 | 0.00 | 0.00 | 95 | 1045.2 |
| 20260901054202 | 58 | 314 | 0.0 | 0.0 | 0.00 | 0.00 | 0.00 | 95 | 1045.3 |
| 20260901053657 | 57 | 314 | 0.0 | 0.0 | 0.00 | 0.00 | 0.00 | 95 | 1045.4 |
| 20260901053153 | 57 | 314 | 0.0 | 0.0 | 0.00 | 0.00 | 0.00 | 95 | 1045.3 |
| 20260901052648 | 57 | 314 | 0.0 | 0.0 | 0.00 | 0.00 | 0.00 | 95 | 1045.2 |
| 20260901052143 | 58 | 314 | 0.0 | 0.0 | 0.00 | 0.00 | 0.00 | 95 | 1045.2 |
| 20260901051642 | 58 | 314 | 0.0 | 0.0 | 0.00 | 0.00 | 0.00 | 95 | 1045.4 |
| 20260901051142 | 58 | 314 | 0.0 | 0.0 | 0.00 | 0.00 | 0.00 | 95 | 1045.6 |
| 20260901050637 | 58 | 314 | 0.0 | 0.0 | 0.00 | 0.00 | 0.00 | 94 | 1045.6 |
| 20260901050132 | 58 | 314 | 0.0 | 0.0 | 0.00 | 0.00 | 0.00 | 94 | 1045.4 |
| 20260901045627 | 58 | 314 | 0.0 | 0.0 | 0.00 | 0.00 | 0.00 | 94 | 1045.5 |
| 20260901045122 | 58 | 314 | 0.0 | 0.0 | 0.00 | 0.00 | 0.00 | 94 | 1045.3 |
| 20260901044618 | 58 | 314 | 0.0 | 0.0 | 0.00 | 0.00 | 0.00 | 94 | 1045.5 |
| 20260901044114 | 58 | 315 | 0.0 | 0.0 | 0.00 | 0.00 | 0.00 | 94 | 1045.4 |
| 20260901043609 | 58 | 315 | 0.0 | 0.0 | 0.00 | 0.00 | 0.00 | 94 | 1045.4 |
| 20260901043104 | 58 | 314 | 0.0 | 0.0 | 0.00 | 0.00 | 0.00 | 93 | 1045.5 |
| 20260901042603 | 58 | 314 | 0.0 | 0.0 | 0.00 | 0.00 | 0.00 | 93 | 1045.2 |
| 20260901042059 | 58 | 314 | 0.0 | 0.0 | 0.00 | 0.00 | 0.00 | 93 | 1045.4 |
| 20260901041554 | 58 | 314 | 0.0 | 0.0 | 0.00 | 0.00 | 0.00 | 93 | 1045.4 |
| 20260901041049 | 59 | 315 | 0.0 | 0.0 | 0.00 | 0.00 | 0.00 | 93 | 1045.2 |
| 20260901040548 | 59 | 315 | 0.0 | 0.0 | 0.00 | 0.00 | 0.00 | 93 | 1045.0 |
| 20260901040043 | 59 | 314 | 0.0 | 0.0 | 0.00 | 0.00 | 0.00 | 92 | 1044.9 |
| 20260901035541 | 59 | 315 | 0.0 | 0.0 | 0.00 | 0.00 | 0.00 | 92 | 1045.0 |
| 20260901035039 | 59 | 315 | 0.0 | 0.0 | 0.00 | 0.00 | 0.00 | 92 | 1045.0 |
| 20260901034534 | 59 | 315 | 0.0 | 0.0 | 0.00 | 0.00 | 0.00 | 92 | 1045.2 |
| 20260901034029 | 59 | 314 | 0.0 | 0.0 | 0.00 | 0.00 | 0.00 | 91 | 1045.2 |
| 20260901033527 | 59 | 314 | 0.0 | 0.0 | 0.00 | 0.00 | 0.00 | 91 | 1045.2 |
| 20260901033022 | 59 | 314 | 0.0 | 0.0 | 0.00 | 0.00 | 0.00 | 91 | 1045.2 |
| 20260901032520 | 59 | 314 | 0.0 | 0.0 | 0.00 | 0.00 | 0.00 | 91 | 1045.2 |
| 20260901032016 | 59 | 314 | 0.0 | 0.0 | 0.00 | 0.00 | 0.00 | 91 | 1045.2 |
| 20260901031511 | 59 | 314 | 0.0 | 0.0 | 0.00 | 0.00 | 0.00 | 90 | 1045.3 |
| 20260901031007 | 59 | 314 | 0.0 | 0.0 | 0.00 | 0.00 | 0.00 | 91 | 1045.0 |
| 20260901030507 | 59 | 314 | 0.0 | 0.0 | 0.00 | 0.00 | 0.00 | 90 | 1045.3 |
| 20260901030001 | 60 | 314 | 0.0 | 0.0 | 0.00 | 0.00 | 0.00 | 90 | 1045.0 |
| 20260901025455 | 60 | 314 | 0.0 | 0.0 | 0.00 | 0.00 | 0.00 | 90 | 1045.3 |
| 20260901024955 | 60 | 314 | 0.0 | 0.0 | 0.00 | 0.00 | 0.00 | 90 | 1045.0 |
| 20260901024450 | 60 | 315 | 0.0 | 0.0 | 0.00 | 0.00 | 0.00 | 89 | 1045.2 |
| 20260901023948 | 60 | 315 | 0.0 | 0.0 | 0.00 | 0.00 | 0.00 | 89 | 1045.3 |
| 20260901023443 | 60 | 315 | 0.0 | 0.0 | 0.00 | 0.00 | 0.00 | 89 | 1045.4 |
| 20260901022938 | 60 | 314 | 0.0 | 0.0 | 0.00 | 0.00 | 0.00 | 89 | 1045.5 |
| 20260901022433 | 60 | 314 | 0.0 | 0.0 | 0.00 | 0.00 | 0.00 | 88 | 1045.3 |
| 20260901021928 | 61 | 314 | 0.0 | 0.0 | 0.00 | 0.00 | 0.00 | 88 | 1045.0 |
| 20260901021424 | 61 | 314 | 0.0 | 0.0 | 0.00 | 0.00 | 0.00 | 87 | 1045.2 |
| 20260901020919 | 61 | 314 | 0.0 | 0.0 | 0.00 | 0.00 | 0.00 | 87 | 1045.2 |
| 20260901020415 | 61 | 314 | 0.0 | 0.0 | 0.00 | 0.00 | 0.00 | 87 | 1045.3 |
| 20260901015913 | 61 | 314 | 0.0 | 0.0 | 0.00 | 0.00 | 0.00 | 87 | 1045.3 |
| 20260901015410 | 61 | 314 | 0.0 | 0.0 | 0.00 | 0.00 | 0.00 | 87 | 1045.3 |
| 20260901014909 | 62 | 314 | 0.0 | 0.0 | 0.00 | 0.00 | 0.00 | 87 | 1045.2 |
| 20260901014406 | 62 | 314 | 0.0 | 0.0 | 0.00 | 0.00 | 0.00 | 87 | 1045.2 |
| 20260901013901 | 62 | 314 | 0.0 | 0.0 | 0.00 | 0.00 | 0.00 | 86 | 1045.2 |
| 20260901013356 | 62 | 315 | 0.0 | 0.0 | 0.00 | 0.00 | 0.00 | 86 | 1045.3 |
| 20260901012852 | 63 | 315 | 0.0 | 0.0 | 0.00 | 0.00 | 0.00 | 85 | 1045.2 |
| 20260901012347 | 63 | 315 | 0.0 | 0.0 | 0.00 | 0.00 | 0.00 | 85 | 1045.2 |
| 20260901011843 | 63 | 314 | 0.0 | 0.0 | 0.00 | 0.00 | 0.00 | 85 | 1045.4 |
| 20260901011338 | 63 | 315 | 0.0 | 0.0 | 0.00 | 0.00 | 0.00 | 84 | 1045.3 |
| 20260901010831 | 64 | 315 | 0.0 | 0.0 | 0.00 | 0.00 | 0.00 | 83 | 1045.3 |
| 20260901010326 | 64 | 315 | 0.0 | 0.0 | 0.00 | 0.00 | 0.00 | 83 | 1045.0 |
| 20260901005825 | 64 | 316 | 0.0 | 0.0 | 0.00 | 0.00 | 0.00 | 83 | 1044.9 |
| 20260901005320 | 64 | 316 | 0.0 | 0.0 | 0.00 | 0.00 | 0.00 | 83 | 1045.0 |
| 20260901004814 | 64 | 315 | 0.0 | 0.0 | 0.00 | 0.00 | 0.00 | 81 | 1044.9 |
| 20260901004308 | 64 | 315 | 0.0 | 0.0 | 0.00 | 0.00 | 0.00 | 81 | 1045.4 |
| 20260901003803 | 65 | 315 | 0.0 | 0.0 | 0.00 | 0.00 | 0.00 | 81 | 1045.3 |
| 20260901003258 | 65 | 315 | 0.0 | 0.0 | 0.00 | 0.00 | 0.00 | 81 | 1045.5 |
| 20260901002756 | 65 | 315 | 0.0 | 0.0 | 0.00 | 0.00 | 0.00 | 80 | 1045.3 |
| 20260901002252 | 65 | 315 | 0.0 | 0.0 | 0.00 | 0.00 | 0.00 | 80 | 1044.9 |
| 20260901001747 | 65 | 315 | 0.0 | 0.0 | 0.00 | 0.00 | 0.00 | 80 | 1045.2 |
| 20260901001242 | 65 | 314 | 0.0 | 0.0 | 0.00 | 0.00 | 0.00 | 80 | 1045.0 |
| 20260901000737 | 65 | 325 | 0.0 | 0.0 | 0.00 | 0.00 | 0.00 | 78 | 1045.0 |
| 20260901000233 | 66 | 326 | 0.0 | 0.0 | 0.00 | 0.00 | 0.00 | 77 | 1045.2 |
| 20260831235726 | 66 | 326 | 0.0 | 0.0 | 0.00 | 0.00 | 0.00 | 76 | 1045.2 |
| 20260831235222 | 66 | 326 | 0.0 | 0.0 | 0.00 | 0.00 | 0.00 | 74 | 1045.3 |
| 20260831234721 | 66 | 326 | 0.0 | 0.0 | 0.00 | 0.00 | 0.00 | 72 | 1045.4 |
| 20260831234216 | 67 | 326 | 0.0 | 0.0 | 0.00 | 0.00 | 0.00 | 74 | 1045.2 |
| 20260831233711 | 67 | 326 | 0.0 | 0.0 | 0.00 | 0.00 | 0.00 | 73 | 1045.4 |
| 20260831233207 | 68 | 326 | 0.0 | 0.0 | 0.00 | 0.00 | 0.00 | 74 | 1045.4 |
| 20260831232706 | 68 | 326 | 0.0 | 0.0 | 0.00 | 0.00 | 0.00 | 72 | 1045.3 |
| 20260831232203 | 68 | 326 | 0.0 | 0.0 | 0.00 | 0.00 | 0.00 | 72 | 1045.3 |
| 20260831231659 | 69 | 326 | 0.0 | 0.0 | 0.00 | 0.00 | 0.00 | 71 | 1045.3 |
| 20260831231155 | 69 | 326 | 0.0 | 0.0 | 0.00 | 0.00 | 0.00 | 69 | 1045.4 |
| 20260831230654 | 69 | 326 | 0.0 | 0.0 | 0.00 | 0.00 | 0.00 | 71 | 1045.3 |
| 20260831230150 | 69 | 325 | 0.0 | 0.0 | 0.00 | 0.00 | 0.00 | 70 | 1045.3 |
| 20260831225649 | 70 | 325 | 0.0 | 0.0 | 0.00 | 0.00 | 0.00 | 68 | 1045.6 |
| 20260831225144 | 70 | 325 | 0.0 | 0.0 | 0.00 | 0.00 | 0.00 | 68 | 1045.5 |
| 20260831224639 | 70 | 325 | 0.0 | 0.0 | 0.00 | 0.00 | 0.00 | 67 | 1045.6 |
| 20260831224135 | 70 | 326 | 0.0 | 0.0 | 0.00 | 0.00 | 0.00 | 70 | 1045.6 |
| 20260831223630 | 71 | 326 | 0.0 | 0.0 | 0.00 | 0.00 | 0.00 | 70 | 1045.7 |
| 20260831223126 | 72 | 326 | 0.0 | 0.0 | 0.00 | 0.00 | 0.00 | 64 | 1045.6 |
| 20260831222622 | 73 | 326 | 0.0 | 0.0 | 0.00 | 0.00 | 0.00 | 61 | 1045.5 |
| 20260831222118 | 73 | 319 | 0.0 | 0.0 | 0.00 | 0.00 | 0.00 | 56 | 1045.6 |
| 20260831221613 | 75 | 320 | 0.0 | 0.0 | 0.00 | 0.00 | 0.00 | 60 | 1045.6 |
| 20260831221114 | 75 | 309 | 0.0 | 0.0 | 0.00 | 0.00 | 0.00 | 54 | 1045.5 |
| 20260831220608 | 77 | 322 | 0.0 | 0.0 | 0.00 | 0.00 | 0.00 | 54 | 1045.6 |
| 20260831220104 | 79 | 321 | 0.0 | 0.0 | 0.00 | 0.00 | 0.00 | 49 | 1045.5 |
| 20260831215559 | 79 | 324 | 0.0 | 0.0 | 0.00 | 0.00 | 0.00 | 46 | 1045.4 |
| 20260831215054 | 79 | 312 | 0.0 | 0.0 | 0.00 | 0.00 | 0.00 | 47 | 1045.5 |
| 20260831214547 | 79 | 301 | 0.0 | 1.0 | 0.00 | 0.00 | 0.00 | 44 | 1045.5 |
| 20260831214042 | 79 | 327 | 0.0 | 0.0 | 0.00 | 0.00 | 0.00 | 44 | 1045.6 |
| 20260831213538 | 79 | 311 | 0.0 | 0.0 | 0.00 | 0.00 | 0.00 | 45 | 1045.4 |
| 20260831213028 | 80 | 314 | 0.0 | 0.0 | 0.00 | 0.00 | 0.00 | 47 | 1045.6 |
| 20260831212524 | 80 | 314 | 0.0 | 0.0 | 0.00 | 0.00 | 0.00 | 45 | 1045.4 |
| 20260831212019 | 81 | 322 | 0.0 | 0.0 | 0.00 | 0.00 | 0.00 | 47 | 1045.6 |
| 20260831211513 | 80 | 332 | 0.0 | 0.0 | 0.00 | 0.00 | 0.00 | 51 | 1045.6 |
| 20260831211012 | 81 | 336 | 0.0 | 0.0 | 0.00 | 0.00 | 0.00 | 48 | 1045.4 |
| 20260831210508 | 81 | 317 | 0.0 | 0.0 | 0.00 | 0.00 | 0.00 | 50 | 1045.3 |
| 20260831210004 | 80 | 318 | 0.0 | 0.0 | 0.00 | 0.00 | 0.00 | 51 | 1045.4 |
| 20260831205458 | 79 | 313 | 0.0 | 0.0 | 0.00 | 0.00 | 0.00 | 52 | 1045.4 |
| 20260831204954 | 77 | 314 | 0.0 | 0.0 | 0.00 | 0.00 | 0.00 | 56 | 1045.5 |
| 20260831204449 | 78 | 327 | 0.0 | 0.0 | 0.00 | 0.00 | 0.00 | 58 | 1045.5 |
| 20260831203947 | 79 | 317 | 0.0 | 0.0 | 0.00 | 0.00 | 0.00 | 54 | 1045.7 |
| 20260831203442 | 78 | 306 | 0.0 | 0.0 | 0.00 | 0.00 | 0.00 | 55 | 1045.8 |
| 20260831202940 | 76 | 321 | 0.0 | 0.0 | 0.00 | 0.00 | 0.00 | 60 | 1045.9 |
| 20260831202436 | 76 | 313 | 0.0 | 1.0 | 0.00 | 0.00 | 0.00 | 58 | 1045.9 |
| 20260831201929 | 76 | 324 | 0.0 | 0.0 | 0.00 | 0.00 | 0.00 | 60 | 1045.9 |
| 20260831201428 | 77 | 327 | 0.0 | 0.0 | 0.00 | 0.00 | 0.00 | 55 | 1045.9 |
| 20260831200924 | 78 | 317 | 0.0 | 0.0 | 0.00 | 0.00 | 0.00 | 55 | 1046.0 |
| 20260831200419 | 77 | 307 | 0.0 | 1.0 | 0.00 | 0.00 | 0.00 | 57 | 1046.0 |
| 20260831195914 | 78 | 319 | 0.0 | 0.0 | 0.00 | 0.00 | 0.00 | 56 | 1046.0 |
| 20260831195409 | 78 | 327 | 0.0 | 0.0 | 0.00 | 0.00 | 0.00 | 56 | 1045.9 |
| 20260831194904 | 77 | 316 | 0.0 | 0.0 | 0.00 | 0.00 | 0.00 | 56 | 1046.0 |
| 20260831194400 | 76 | 351 | 1.0 | 2.0 | 0.00 | 0.00 | 0.00 | 57 | 1046.2 |
| 20260831193859 | 76 | 312 | 0.0 | 0.0 | 0.00 | 0.00 | 0.00 | 57 | 1046.3 |
| 20260831193354 | 76 | 297 | 1.0 | 1.0 | 0.00 | 0.00 | 0.00 | 57 | 1046.2 |
| 20260831192849 | 76 | 321 | 0.0 | 0.0 | 0.00 | 0.00 | 0.00 | 57 | 1046.2 |
| 20260831192344 | 76 | 319 | 0.0 | 0.0 | 0.00 | 0.00 | 0.00 | 57 | 1046.3 |
| 20260831191840 | 76 | 317 | 0.0 | 0.0 | 0.00 | 0.00 | 0.00 | 57 | 1046.3 |
| 20260831191336 | 76 | 312 | 0.0 | 0.0 | 0.00 | 0.00 | 0.00 | 56 | 1046.3 |
| 20260831190832 | 76 | 318 | 0.0 | 0.0 | 0.00 | 0.00 | 0.00 | 54 | 1046.5 |
| 20260831190331 | 77 | 290 | 0.0 | 0.0 | 0.00 | 0.00 | 0.00 | 55 | 1046.3 |
| 20260831185831 | 77 | 298 | 0.0 | 0.0 | 0.00 | 0.00 | 0.00 | 55 | 1046.2 |
| 20260831185327 | 75 | 325 | 0.0 | 0.0 | 0.00 | 0.00 | 0.00 | 55 | 1046.2 |
| 20260831184826 | 76 | 340 | 0.0 | 0.0 | 0.00 | 0.00 | 0.00 | 54 | 1046.3 |
| 20260831184321 | 75 | 302 | 1.0 | 1.0 | 0.00 | 0.00 | 0.00 | 54 | 1046.4 |
| 20260831183816 | 75 | 257 | 0.0 | 0.0 | 0.00 | 0.00 | 0.00 | 56 | 1046.4 |
| 20260831183315 | 74 | 303 | 0.0 | 1.0 | 0.00 | 0.00 | 0.00 | 58 | 1046.5 |
| 20260831182815 | 75 | 342 | 0.0 | 0.0 | 0.00 | 0.00 | 0.00 | 57 | 1046.6 |
| 20260831182310 | 75 | 11 | 0.0 | 1.0 | 0.00 | 0.00 | 0.00 | 55 | 1046.6 |
| 20260831181805 | 74 | 333 | 0.0 | 0.0 | 0.00 | 0.00 | 0.00 | 55 | 1046.7 |
| 20260831181300 | 74 | 317 | 0.0 | 1.0 | 0.00 | 0.00 | 0.00 | 54 | 1046.7 |
| 20260831180755 | 74 | 317 | 0.0 | 0.0 | 0.00 | 0.00 | 0.00 | 55 | 1046.7 |
| 20260831180250 | 73 | 264 | 1.0 | 2.0 | 0.00 | 0.00 | 0.00 | 54 | 1046.8 |
| 20260831175748 | 73 | 311 | 1.0 | 1.0 | 0.00 | 0.00 | 0.00 | 55 | 1046.9 |
| 20260831175245 | 73 | 323 | 0.0 | 0.0 | 0.00 | 0.00 | 0.00 | 57 | 1046.7 |
| 20260831174740 | 72 | 313 | 0.0 | 0.0 | 0.00 | 0.00 | 0.00 | 60 | 1046.8 |
| 20260831174236 | 72 | 323 | 0.0 | 0.0 | 0.00 | 0.00 | 0.00 | 57 | 1046.9 |
| 20260831173734 | 72 | 326 | 0.0 | 0.0 | 0.00 | 0.00 | 0.00 | 57 | 1046.9 |
| 20260831173229 | 71 | 321 | 0.0 | 0.0 | 0.00 | 0.00 | 0.00 | 59 | 1046.9 |
| 20260831172725 | 71 | 341 | 0.0 | 0.0 | 0.00 | 0.00 | 0.00 | 59 | 1046.8 |
| 20260831172220 | 71 | 359 | 1.0 | 1.0 | 0.00 | 0.00 | 0.00 | 60 | 1047.1 |
| 20260831171714 | 71 | 23 | 2.0 | 2.0 | 0.00 | 0.00 | 0.00 | 60 | 1047.3 |
| 20260831171212 | 71 | 320 | 0.0 | 1.0 | 0.00 | 0.00 | 0.00 | 63 | 1047.4 |
| 20260831170708 | 70 | 325 | 0.0 | 0.0 | 0.00 | 0.00 | 0.00 | 63 | 1047.2 |
| 20260831170204 | 70 | 336 | 0.0 | 0.0 | 0.00 | 0.00 | 0.00 | 65 | 1047.4 |
| 20260831165700 | 69 | 319 | 0.0 | 0.0 | 0.00 | 0.00 | 0.00 | 64 | 1047.4 |
| 20260831165156 | 69 | 337 | 0.0 | 0.0 | 0.00 | 0.00 | 0.00 | 64 | 1047.5 |
| 20260831164652 | 68 | 337 | 0.0 | 0.0 | 0.00 | 0.00 | 0.00 | 68 | 1047.5 |
| 20260831164148 | 68 | 337 | 0.0 | 0.0 | 0.00 | 0.00 | 0.00 | 66 | 1047.5 |
| 20260831163643 | 69 | 342 | 0.0 | 0.0 | 0.00 | 0.00 | 0.00 | 66 | 1047.7 |
| 20260831163139 | 68 | 319 | 0.0 | 0.0 | 0.00 | 0.00 | 0.00 | 67 | 1047.8 |
| 20260831162638 | 68 | 334 | 0.0 | 0.0 | 0.00 | 0.00 | 0.00 | 69 | 1047.7 |
| 20260831162136 | 68 | 336 | 0.0 | 0.0 | 0.00 | 0.00 | 0.00 | 68 | 1047.8 |
| 20260831161632 | 68 | 325 | 0.0 | 0.0 | 0.00 | 0.00 | 0.00 | 70 | 1047.8 |
| 20260831161129 | 68 | 355 | 1.0 | 1.0 | 0.00 | 0.00 | 0.00 | 70 | 1047.9 |
| 20260831160627 | 68 | 298 | 1.0 | 2.0 | 0.00 | 0.00 | 0.00 | 73 | 1047.8 |
| 20260831160122 | 67 | 313 | 1.0 | 1.0 | 0.00 | 0.00 | 0.00 | 74 | 1047.7 |
| 20260831155617 | 67 | 309 | 1.0 | 1.0 | 0.00 | 0.00 | 0.00 | 75 | 1047.7 |
| 20260831155113 | 67 | 323 | 0.0 | 0.0 | 0.00 | 0.00 | 0.00 | 73 | 1047.8 |
| 20260831154608 | 67 | 329 | 1.0 | 1.0 | 0.00 | 0.00 | 0.00 | 75 | 1047.6 |
| 20260831154108 | 66 | 310 | 1.0 | 1.0 | 0.00 | 0.00 | 0.00 | 78 | 1047.8 |
| 20260831153607 | 66 | 353 | 0.0 | 0.0 | 0.00 | 0.00 | 0.00 | 79 | 1047.9 |
| 20260831153104 | 66 | 304 | 1.0 | 2.0 | 0.00 | 0.00 | 0.00 | 80 | 1047.8 |
| 20260831152559 | 66 | 322 | 0.0 | 0.0 | 0.00 | 0.00 | 0.00 | 81 | 1047.7 |
| 20260831152055 | 65 | 319 | 0.0 | 0.0 | 0.00 | 0.00 | 0.00 | 81 | 1047.6 |
| 20260831151554 | 64 | 325 | 0.0 | 0.0 | 0.00 | 0.00 | 0.00 | 84 | 1047.5 |
| 20260831151049 | 64 | 300 | 0.0 | 0.0 | 0.00 | 0.00 | 0.00 | 85 | 1047.6 |
| 20260831150544 | 64 | 324 | 0.0 | 0.0 | 0.00 | 0.00 | 0.00 | 86 | 1047.6 |
| 20260831150040 | 63 | 319 | 0.0 | 0.0 | 0.00 | 0.00 | 0.00 | 89 | 1047.5 |
| 20260831145534 | 62 | 333 | 0.0 | 0.0 | 0.00 | 0.00 | 0.00 | 90 | 1047.4 |
| 20260831145031 | 62 | 294 | 0.0 | 0.0 | 0.00 | 0.00 | 0.00 | 91 | 1047.7 |
| 20260831144526 | 61 | 327 | 0.0 | 0.0 | 0.00 | 0.00 | 0.00 | 92 | 1047.5 |
| 20260831144021 | 61 | 281 | 0.0 | 0.0 | 0.00 | 0.00 | 0.00 | 93 | 1047.7 |
| 20260831143516 | 61 | 297 | 1.0 | 2.0 | 0.00 | 0.00 | 0.00 | 93 | 1047.7 |
| 20260831143011 | 60 | 329 | 0.0 | 0.0 | 0.00 | 0.00 | 0.00 | 93 | 1047.8 |
| 20260831142508 | 60 | 338 | 0.0 | 0.0 | 0.00 | 0.00 | 0.00 | 94 | 1047.9 |
| 20260831142002 | 60 | 329 | 0.0 | 0.0 | 0.00 | 0.00 | 0.00 | 94 | 1047.9 |
| 20260831141456 | 60 | 333 | 0.0 | 0.0 | 0.00 | 0.00 | 0.00 | 94 | 1047.9 |
| 20260831140951 | 60 | 310 | 0.0 | 1.0 | 0.00 | 0.00 | 0.00 | 95 | 1047.9 |
| 20260831140450 | 60 | 323 | 0.0 | 0.0 | 0.00 | 0.00 | 0.00 | 94 | 1047.8 |
| 20260831135949 | 60 | 312 | 0.0 | 1.0 | 0.00 | 0.00 | 0.00 | 95 | 1048.0 |
| 20260831135448 | 60 | 321 | 0.0 | 0.0 | 0.00 | 0.00 | 0.00 | 95 | 1047.9 |
| 20260831134943 | 59 | 336 | 0.0 | 0.0 | 0.00 | 0.00 | 0.00 | 96 | 1047.7 |
| 20260831134435 | 59 | 321 | 0.0 | 0.0 | 0.00 | 0.00 | 0.00 | 97 | 1047.9 |
| 20260831133934 | 58 | 324 | 0.0 | 1.0 | 0.00 | 0.00 | 0.00 | 97 | 1047.8 |
| 20260831133434 | 58 | 327 | 0.0 | 0.0 | 0.00 | 0.00 | 0.00 | 98 | 1047.7 |
| 20260831132930 | 58 | 322 | 0.0 | 0.0 | 0.00 | 0.00 | 0.00 | 99 | 1047.7 |
| 20260831132425 | 57 | 342 | 0.0 | 0.0 | 0.00 | 0.00 | 0.00 | 99 | 1047.8 |
| 20260831131924 | 57 | 348 | 0.0 | 0.0 | 0.00 | 0.00 | 0.00 | 99 | 1047.9 |
| 20260831131420 | 56 | 340 | 0.0 | 0.0 | 0.00 | 0.00 | 0.00 | 99 | 1047.8 |
| 20260831130915 | 56 | 330 | 0.0 | 0.0 | 0.00 | 0.00 | 0.00 | 99 | 1047.6 |
| 20260831130411 | 56 | 306 | 0.0 | 0.0 | 0.00 | 0.00 | 0.00 | 99 | 1047.7 |
| 20260831125910 | 56 | 322 | 0.0 | 0.0 | 0.00 | 0.00 | 0.00 | 99 | 1047.9 |
| 20260831125405 | 56 | 309 | 1.0 | 1.0 | 0.00 | 0.00 | 0.00 | 99 | 1047.8 |
| 20260831124901 | 56 | 332 | 0.0 | 0.0 | 0.00 | 0.00 | 0.00 | 99 | 1047.8 |
| 20260831124356 | 55 | 325 | 0.0 | 0.0 | 0.00 | 0.00 | 0.00 | 99 | 1047.8 |
| 20260831123857 | 55 | 329 | 0.0 | 0.0 | 0.00 | 0.00 | 0.00 | 99 | 1047.6 |
| 20260831123356 | 55 | 327 | 0.0 | 0.0 | 0.00 | 0.00 | 0.00 | 99 | 1047.6 |
| 20260831122856 | 55 | 302 | 1.0 | 1.0 | 0.00 | 0.00 | 0.00 | 99 | 1047.5 |
| 20260831122351 | 55 | 6 | 1.0 | 1.0 | 0.00 | 0.00 | 0.00 | 99 | 1047.6 |
| 20260831121846 | 55 | 340 | 0.0 | 0.0 | 0.00 | 0.00 | 0.00 | 99 | 1047.6 |
| 20260831121343 | 54 | 334 | 0.0 | 0.0 | 0.00 | 0.00 | 0.00 | 99 | 1047.6 |
| 20260831120838 | 54 | 336 | 0.0 | 0.0 | 0.00 | 0.00 | 0.00 | 99 | 1047.6 |
| 20260831120332 | 54 | 331 | 0.0 | 0.0 | 0.00 | 0.00 | 0.00 | 99 | 1047.6 |
| 20260831115827 | 54 | 339 | 0.0 | 0.0 | 0.00 | 0.00 | 0.00 | 99 | 1047.7 |
| 20260831115324 | 54 | 353 | 1.0 | 1.0 | 0.00 | 0.00 | 0.00 | 99 | 1047.6 |
| 20260831114823 | 54 | 325 | 0.0 | 0.0 | 0.00 | 0.00 | 0.00 | 99 | 1047.5 |
| 20260831114322 | 54 | 321 | 0.0 | 0.0 | 0.00 | 0.00 | 0.00 | 99 | 1047.4 |
| 20260831113818 | 54 | 321 | 0.0 | 0.0 | 0.00 | 0.00 | 0.00 | 99 | 1047.3 |
| 20260831113317 | 54 | 324 | 0.0 | 0.0 | 0.00 | 0.00 | 0.00 | 99 | 1047.3 |
| 20260831112812 | 54 | 323 | 0.0 | 0.0 | 0.00 | 0.00 | 0.00 | 99 | 1047.3 |
| 20260831112307 | 54 | 337 | 0.0 | 0.0 | 0.00 | 0.00 | 0.00 | 99 | 1047.4 |
| 20260831111802 | 54 | 336 | 0.0 | 0.0 | 0.00 | 0.00 | 0.00 | 99 | 1047.3 |
| 20260831111259 | 54 | 336 | 0.0 | 0.0 | 0.00 | 0.00 | 0.00 | 99 | 1047.2 |
| 20260831110754 | 54 | 337 | 0.0 | 0.0 | 0.00 | 0.00 | 0.00 | 99 | 1047.2 |
| 20260831110249 | 54 | 334 | 0.0 | 0.0 | 0.00 | 0.00 | 0.00 | 99 | 1047.4 |
| 20260831105747 | 54 | 344 | 0.0 | 0.0 | 0.00 | 0.00 | 0.00 | 99 | 1047.3 |
| 20260831105244 | 54 | 337 | 0.0 | 0.0 | 0.00 | 0.00 | 0.00 | 99 | 1047.1 |
| 20260831104743 | 54 | 331 | 0.0 | 0.0 | 0.00 | 0.00 | 0.00 | 99 | 1047.2 |
| 20260831104240 | 54 | 328 | 0.0 | 0.0 | 0.00 | 0.00 | 0.00 | 99 | 1047.1 |
| 20260831103735 | 54 | 328 | 0.0 | 0.0 | 0.00 | 0.00 | 0.00 | 99 | 1046.9 |
| 20260831103230 | 54 | 336 | 0.0 | 0.0 | 0.00 | 0.00 | 0.00 | 99 | 1047.1 |
| 20260831102730 | 54 | 339 | 0.0 | 0.0 | 0.00 | 0.00 | 0.00 | 99 | 1046.8 |
| 20260831102225 | 53 | 333 | 0.0 | 0.0 | 0.00 | 0.00 | 0.00 | 99 | 1046.8 |
| 20260831101720 | 53 | 329 | 0.0 | 0.0 | 0.00 | 0.00 | 0.00 | 99 | 1046.9 |
| 20260831101216 | 53 | 332 | 0.0 | 0.0 | 0.00 | 0.00 | 0.00 | 99 | 1046.9 |
| 20260831100712 | 53 | 328 | 0.0 | 0.0 | 0.00 | 0.00 | 0.00 | 99 | 1047.0 |
| 20260831100208 | 53 | 328 | 0.0 | 0.0 | 0.00 | 0.00 | 0.00 | 99 | 1047.0 |
| 20260831095706 | 54 | 327 | 0.0 | 0.0 | 0.00 | 0.00 | 0.00 | 99 | 1046.9 |